Location: Niedergestelen
(46.3129°N, 7.7822°E)
Time: 16:13:53
(UTC+00:00)

SMAP - Pass Details

Date: 01 December 2020
Orbit: 681 x 683 km, 98.1° (Epoch: 28 January)

Event Time Altitude Azimuth Distance (km) Brightness Sun altitude
Rises 16:59:29 0° 171° (S) 3,032 6.5 -12.6°
Reaches altitude 10° 17:01:43 10° 174° (S) 2,121 5.8 -13.0°
Maximum altitude 17:06:20 69° 258° (WSW) 735 3.4 -13.7°
Drops below altitude 10° 17:11:00 10° 342° (NNW) 2,139 5.6 -14.5°
Sets 17:13:17 0° 345° (NNW) 3,059 6.4 -14.9°
